• In Hungary
  • List of Countries
  • For 7 days
  • Water Temperature
  • Satellite Maps
  • Weather Map
  • News
  • Weather Widgets
  • user-avatar
    Login

    Hourly Weather Varna

    Today, 22 October, Sunday

    Time Temperature Precipitation Wind Pressure Humidity
    00:00 +16°C° 0 mm 3 mps 745 mmHg 58%
    01:00 +16°C° 0 mm 3 mps 744 mmHg 57%
    02:00 +16°C° 0 mm 3 mps 744 mmHg 57%
    03:00 +16°C° 0 mm 3 mps 744 mmHg 59%
    04:00 +14°C° 0 mm 4 mps 744 mmHg 60%
    05:00 +14°C° 0 mm 4 mps 744 mmHg 62%
    06:00 +14°C° 0 mm 4 mps 745 mmHg 62%
    07:00 +14°C° 0 mm 5 mps 745 mmHg 62%
    08:00 +14°C° 0 mm 5 mps 745 mmHg 63%
    09:00 +16°C° 0 mm 5 mps 746 mmHg 58%
    10:00 +18°C° 0 mm 4 mps 746 mmHg 53%
    11:00 +19°C° 0 mm 4 mps 746 mmHg 48%
    12:00 +20°C° 0 mm 4 mps 746 mmHg 46%
    13:00 +20°C° 0 mm 3 mps 746 mmHg 44%
    14:00 +21°C° 0 mm 3 mps 746 mmHg 42%
    15:00 +20°C° 0 mm 3 mps 746 mmHg 45%
    16:00 +19°C° 0 mm 3 mps 746 mmHg 49%
    17:00 +18°C° 0 mm 3 mps 746 mmHg 53%
    18:00 +17°C° 0 mm 3 mps 746 mmHg 58%
    19:00 +16°C° 0 mm 3 mps 746 mmHg 64%
    20:00 +14°C° 0 mm 3 mps 746 mmHg 70%
    21:00 +14°C° 0 mm 3 mps 746 mmHg 73%
    22:00 +14°C° 0 mm 3 mps 746 mmHg 76%
    23:00 +13°C° 0 mm 3 mps 746 mmHg 79%

    Tomorrow, 23 October, Monday

    Time Temperature Precipitation Wind Pressure Humidity
    00:00 +13°C° 0 mm 4 mps 746 mmHg 81%
    01:00 +13°C° 0 mm 4 mps 746 mmHg 83%
    02:00 +13°C° 0 mm 4 mps 746 mmHg 85%
    03:00 +13°C° 0 mm 4 mps 745 mmHg 87%
    04:00 +13°C° 0 mm 4 mps 744 mmHg 88%
    05:00 +13°C° 0 mm 5 mps 744 mmHg 89%
    06:00 +13°C° 0 mm 5 mps 744 mmHg 87%
    07:00 +14°C° 0 mm 5 mps 744 mmHg 84%
    08:00 +14°C° 0 mm 6 mps 743 mmHg 82%
    09:00 +15°C° 0 mm 6 mps 743 mmHg 79%
    10:00 +16°C° 0 mm 6 mps 743 mmHg 76%
    11:00 +16°C° 0 mm 7 mps 742 mmHg 72%
    12:00 +16°C° 0 mm 7 mps 742 mmHg 73%
    13:00 +16°C° 0 mm 6 mps 741 mmHg 73%
    14:00 +17°C° 0 mm 6 mps 740 mmHg 73%
    15:00 +16°C° 0 mm 6 mps 740 mmHg 76%
    16:00 +16°C° 0 mm 6 mps 740 mmHg 80%
    17:00 +15°C° 0 mm 6 mps 740 mmHg 83%
    18:00 +15°C° 0 mm 6 mps 739 mmHg 85%
    19:00 +15°C° 0 mm 6 mps 739 mmHg 86%
    20:00 +15°C° 0 mm 6 mps 739 mmHg 88%
    21:00 +15°C° 0 mm 6 mps 739 mmHg 88%
    22:00 +15°C° 0 mm 6 mps 739 mmHg 89%
    23:00 +15°C° 0 mm 6 mps 739 mmHg 90%

    Day after tomorrow, 24 October, Tuesday

    Time Temperature Precipitation Wind Pressure Humidity
    00:00 +15°C° 0 mm 6 mps 739 mmHg 90%
    01:00 +15°C° 0 mm 6 mps 739 mmHg 90%
    02:00 +15°C° 0 mm 5 mps 739 mmHg 91%
    03:00 +15°C° 0 mm 6 mps 738 mmHg 91%
    04:00 +15°C° 0 mm 6 mps 738 mmHg 92%
    05:00 +15°C° 0 mm 6 mps 738 mmHg 92%
    06:00 +15°C° 0.6 mm 6 mps 738 mmHg 91%
    07:00 +16°C° 0.6 mm 6 mps 739 mmHg 90%
    08:00 +16°C° 0.6 mm 5 mps 739 mmHg 88%
    09:00 +16°C° 0.4 mm 6 mps 739 mmHg 84%
    10:00 +17°C° 0.4 mm 6 mps 740 mmHg 80%
    11:00 +17°C° 0.4 mm 6 mps 740 mmHg 76%
    12:00 +19°C° 0.5 mm 6 mps 740 mmHg 74%
    13:00 +19°C° 0.5 mm 6 mps 740 mmHg 71%
    14:00 +20°C° 0.5 mm 7 mps 740 mmHg 69%
    15:00 +18°C° 0.7 mm 7 mps 741 mmHg 74%
    16:00 +17°C° 0.7 mm 7 mps 741 mmHg 80%
    17:00 +16°C° 0.7 mm 7 mps 741 mmHg 86%
    18:00 +16°C° 0.5 mm 8 mps 742 mmHg 86%
    19:00 +16°C° 0.5 mm 9 mps 742 mmHg 85%
    20:00 +16°C° 0.5 mm 9 mps 743 mmHg 85%
    21:00 +15°C° 0.3 mm 9 mps 743 mmHg 84%
    22:00 +15°C° 0.3 mm 9 mps 744 mmHg 83%
    23:00 +13°C° 0.3 mm 9 mps 744 mmHg 82%

    25 October, Wednesday

    Time Temperature Precipitation Wind Pressure Humidity
    00:00 +13°C° 0.1 mm 9 mps 744 mmHg 82%
    01:00 +12°C° 0.1 mm 10 mps 745 mmHg 81%
    02:00 +12°C° 0.1 mm 10 mps 745 mmHg 80%
    03:00 +11°C° 0.1 mm 10 mps 745 mmHg 78%
    04:00 +9°C° 0.1 mm 10 mps 746 mmHg 77%
    05:00 +9°C° 0.1 mm 11 mps 746 mmHg 75%
    06:00 +8°C° 0 mm 10 mps 747 mmHg 73%
    07:00 +8°C° 0 mm 10 mps 747 mmHg 72%
    08:00 +8°C° 0 mm 10 mps 748 mmHg 70%
    09:00 +8°C° 0 mm 10 mps 748 mmHg 68%
    10:00 +8°C° 0 mm 10 mps 749 mmHg 66%
    11:00 +8°C° 0 mm 9 mps 749 mmHg 64%
    12:00 +10°C° 0 mm 9 mps 749 mmHg 62%
    13:00 +10°C° 0 mm 9 mps 750 mmHg 60%
    14:00 +11°C° 0 mm 8 mps 750 mmHg 59%
    15:00 +11°C° 0 mm 8 mps 750 mmHg 58%
    16:00 +11°C° 0 mm 8 mps 751 mmHg 58%
    17:00 +11°C° 0 mm 7 mps 751 mmHg 57%
    18:00 +11°C° 0 mm 7 mps 752 mmHg 58%
    19:00 +10°C° 0 mm 7 mps 752 mmHg 58%
    20:00 +10°C° 0 mm 7 mps 753 mmHg 58%
    21:00 +10°C° 0 mm 7 mps 753 mmHg 59%
    22:00 +9°C° 0 mm 7 mps 753 mmHg 61%
    23:00 +8°C° 0 mm 6 mps 753 mmHg 62%

    26 October, Thursday

    Time Temperature Precipitation Wind Pressure Humidity
    00:00 +8°C° 0 mm 6 mps 753 mmHg 63%
    01:00 +8°C° 0 mm 6 mps 753 mmHg 64%
    02:00 +7°C° 0 mm 6 mps 753 mmHg 65%
    03:00 +7°C° 0 mm 6 mps 753 mmHg 66%
    04:00 +6°C° 0 mm 5 mps 753 mmHg 67%
    05:00 +6°C° 0 mm 5 mps 753 mmHg 68%
    06:00 +6°C° 0 mm 5 mps 754 mmHg 67%
    07:00 +7°C° 0 mm 4 mps 754 mmHg 65%
    08:00 +7°C° 0 mm 4 mps 754 mmHg 64%
    09:00 +10°C° 0 mm 4 mps 754 mmHg 60%
    10:00 +12°C° 0 mm 4 mps 754 mmHg 55%
    11:00 +13°C° 0 mm 4 mps 754 mmHg 50%
    12:00 +14°C° 0 mm 4 mps 754 mmHg 49%
    13:00 +15°C° 0 mm 4 mps 753 mmHg 48%
    14:00 +17°C° 0 mm 3 mps 753 mmHg 47%
    15:00 +16°C° 0 mm 3 mps 753 mmHg 50%
    16:00 +15°C° 0 mm 2 mps 752 mmHg 54%
    17:00 +14°C° 0 mm 1 mps 752 mmHg 58%
    18:00 +14°C° 0 mm 1 mps 752 mmHg 62%
    19:00 +13°C° 0 mm 1 mps 752 mmHg 65%
    20:00 +12°C° 0 mm 1 mps 753 mmHg 69%
    21:00 +12°C° 0 mm 1 mps 752 mmHg 71%
    22:00 +12°C° 0 mm 2 mps 752 mmHg 72%
    23:00 +12°C° 0 mm 2 mps 752 mmHg 74%

    27 October, Friday

    Time Temperature Precipitation Wind Pressure Humidity
    00:00 +10°C° 0 mm 2 mps 752 mmHg 75%
    01:00 +10°C° 0 mm 2 mps 752 mmHg 76%
    02:00 +10°C° 0 mm 2 mps 752 mmHg 77%
    03:00 +10°C° 0 mm 2 mps 751 mmHg 77%
    04:00 +10°C° 0 mm 2 mps 751 mmHg 78%
    05:00 +9°C° 0 mm 2 mps 751 mmHg 78%
    06:00 +10°C° 0 mm 2 mps 751 mmHg 75%
    07:00 +10°C° 0 mm 2 mps 751 mmHg 73%
    08:00 +12°C° 0 mm 2 mps 751 mmHg 71%
    09:00 +13°C° 0 mm 3 mps 750 mmHg 64%
    10:00 +16°C° 0 mm 3 mps 750 mmHg 57%
    11:00 +17°C° 0 mm 3 mps 750 mmHg 50%
    12:00 +18°C° 0 mm 4 mps 749 mmHg 48%
    13:00 +19°C° 0 mm 4 mps 748 mmHg 47%
    14:00 +20°C° 0 mm 4 mps 748 mmHg 45%
    15:00 +19°C° 0 mm 4 mps 747 mmHg 50%
    16:00 +18°C° 0 mm 4 mps 746 mmHg 54%
    17:00 +17°C° 0 mm 4 mps 746 mmHg 58%
    18:00 +15°C° 0 mm 4 mps 745 mmHg 60%
    19:00 +14°C° 0 mm 4 mps 745 mmHg 63%
    20:00 +14°C° 0 mm 4 mps 745 mmHg 65%
    21:00 +13°C° 0 mm 4 mps 744 mmHg 66%
    22:00 +13°C° 0 mm 5 mps 744 mmHg 66%
    23:00 +13°C° 0 mm 5 mps 743 mmHg 66%
    Show more